[[{"header":{"parameterUnit":"m.s-1","parameterCategory":1,"la1":30.2991,"la2":30.254,"lo1":-89.0895,"lo2":-89.0444,"dy":0.0017,"dx":0.0017,"nx":28,"ny":28,"refTime":"2025-11-15T03:00:00:Z","depth":0,"parameterNumber":2,"parameterNumberName":"U-component_of_WINDS"},"data":[0,0,0,0,0,0,0,0,0,0,0,0,0,0,0,0,0,0,0,0,0,0,0,0,0,0,0,0,0,0,0,0,0,0,0,0,0,0,0,0,0,0,0,0,0,0,0,0,0,0,0,0,0,0,0,0,0,0,-0.5778,-0.5778,0,-0.5829,-0.583,-0.583,-0.5816,-0.5815,-0.5814,-0.5813,-0.5868,-0.5871,-0.5873,0,0,0,0,0,0,0,0,0,0,0,0,0,-0.5668,-0.5671,-0.5778,-0.5778,-0.5779,-0.5829,-0.583,-0.5831,-0.5817,-0.5815,-0.5814,-0.5813,-0.5867,-0.587,-0.5873,0,0,0,0,0,0,0,0,0,0,0,0,0,-0.5718,-0.5671,-0.5778,-0.5778,-0.5778,-0.5829,-0.583,-0.5831,-0.5817,-0.5815,-0.5814,-0.5812,-0.5866,-0.587,-0.5874,-0.5927,0,0,-0.5885,-0.5886,0,0,0,0,0,0,0,0,-0.5715,-0.5722,-0.5777,-0.5778,-0.5779,-0.5815,-0.5811,-0.5863,-0.5817,-0.5802,-0.5813,-0.5812,-0.5852,-0.5857,-0.587,-0.593,-0.5932,-0.5885,-0.5887,-0.5889,-0.589,0,0,0,0,0,0,0,-0.5711,-0.5719,-0.5798,-0.5778,-0.5779,-0.5776,-0.5781,-0.5821,-0.5835,-0.5804,-0.5803,-0.5809,-0.5852,-0.5866,-0.5871,-0.5933,-0.5885,-0.5888,-0.589,-0.5892,-0.604,-0.6041,0,0,0,0,0,0,-0.5707,-0.5717,-0.5796,-0.58,-0.5742,-0.5779,-0.5785,-0.5805,-0.5835,-0.5838,-0.581,-0.5808,-0.5861,-0.5867,-0.5873,-0.5938,-0.5889,-0.5892,-0.5894,-0.6038,-0.604,-0.6042,0,0,0,0,0,0,-0.5705,-0.5715,-0.5794,-0.5758,-0.5768,-0.5783,-0.5805,-0.5807,-0.5821,-0.584,-0.5842,-0.5822,-0.586,-0.5868,-0.5914,-0.5939,-0.5894,-0.5897,-0.6036,-0.6039,-0.6041,-0.6068,0,0,0,0,0,0,-0.5702,-0.5714,-0.5734,-0.5758,-0.577,-0.5834,-0.5807,-0.5809,-0.5827,-0.5825,-0.5852,-0.5855,-0.5859,-0.5908,-0.5917,-0.5944,-0.59,-0.6034,-0.6037,-0.604,-0.6065,-0.6071,-0.6076,0,0,0,0,0,-0.5698,-0.574,-0.5735,-0.5745,-0.5795,-0.5836,-0.5842,-0.5846,-0.5829,-0.585,-0.5862,-0.5854,-0.5935,-0.5913,-0.5923,-0.5951,-0.6032,-0.6036,-0.604,-0.6062,-0.607,-0.6076,0,0,0,0,0,0,-0.5719,-0.5743,-0.5738,-0.5789,-0.581,-0.5833,-0.586,-0.5854,-0.5881,-0.5878,-0.5882,-0.5888,-0.5935,-0.5948,-0.5923,-0.6004,-0.5981,-0.5987,-0.5995,-0.6002,-0.6008,-0.6004,-0.5903,0,0,0,0,0,-0.573,-0.576,-0.5779,-0.5823,-0.5833,-0.5845,-0.5862,-0.5863,-0.5886,-0.5895,-0.591,-0.5933,-0.5963,-0.5983,-0.6012,-0.6066,-0.6072,-0.609,-0.6096,-0.6101,-0.6106,-0.6135,-0.6144,-0.6055,-0.6055,-0.6055,0,0,-0.5752,-0.5769,-0.5788,-0.5827,-0.5844,-0.5875,-0.5852,-0.5887,-0.591,-0.59,-0.5944,-0.5956,-0.5982,-0.6032,-0.6055,-0.6044,-0.6132,-0.6106,-0.6109,-0.6112,-0.614,-0.6149,-0.6156,-0.6057,-0.6057,-0.6057,0,0,-0.5809,-0.5824,-0.5862,-0.5879,-0.5904,-0.5911,-0.592,-0.5943,-0.5951,-0.5995,-0.5988,-0.6016,-0.6068,-0.6087,-0.6103,-0.6165,-0.6159,-0.6175,-0.6206,-0.6234,-0.6241,-0.6247,-0.627,-0.6278,-0.618,-0.618,-0.618,0,-0.5834,-0.588,-0.5882,-0.5917,-0.5935,-0.5926,-0.5964,-0.5981,-0.6014,-0.6027,-0.6014,-0.6079,-0.6095,-0.6149,-0.6165,-0.6178,-0.6188,-0.6172,-0.624,-0.6246,-0.6252,-0.6273,-0.6282,-0.6182,-0.6182,-0.6182,-0.6181,0,-0.5909,-0.5942,-0.5969,-0.6001,-0.6022,-0.6058,-0.6066,-0.6087,-0.6086,-0.6094,-0.6139,-0.6158,-0.6191,-0.6204,-0.6204,-0.6258,-0.625,-0.6238,-0.6215,-0.6262,-0.6282,-0.6291,-0.6184,-0.6184,-0.6183,-0.6183,0,0,-0.5982,-0.6013,-0.6024,-0.6038,-0.6064,-0.6089,-0.6125,-0.6157,-0.6174,-0.6198,-0.6228,-0.6272,-0.6261,-0.6279,-0.6281,-0.6306,-0.6354,-0.6291,-0.6291,-0.6302,-0.6415,-0.6424,-0.6434,-0.635,-0.6351,-0.6352,-0.6413,0,-0.6041,-0.6104,-0.6106,-0.6164,-0.6194,-0.6185,-0.6217,-0.6237,-0.6245,-0.6272,-0.6282,-0.6313,-0.6296,-0.6307,-0.6331,-0.6343,-0.6377,-0.6339,-0.6378,-0.638,-0.6373,-0.6444,-0.6454,-0.651,-0.6421,-0.6422,-0.6423,0,-0.6119,-0.6143,-0.6204,-0.6225,-0.6238,-0.6266,-0.6294,-0.632,-0.6342,-0.6347,-0.6367,-0.6365,-0.6402,-0.6377,-0.6428,-0.6402,-0.6418,-0.6426,-0.6428,-0.6433,-0.6405,-0.645,-0.6528,-0.6537,-0.6436,-0.6435,-0.6434,0,-0.6166,-0.6214,-0.6256,-0.6268,-0.6295,-0.6315,-0.6327,-0.6347,-0.6366,-0.6391,-0.6403,-0.6432,-0.6448,-0.6471,-0.6476,-0.6458,-0.6528,-0.6503,-0.6533,-0.6533,-0.6548,-0.6547,-0.663,-0.6558,-0.6558,-0.6558,-0.6558,0,-0.6232,-0.6269,-0.6277,-0.6303,-0.6345,-0.6347,-0.6388,-0.6399,-0.6417,-0.6445,-0.644,-0.6467,-0.6472,-0.65,-0.6505,-0.6546,-0.6554,-0.6558,-0.6559,-0.6559,-0.6559,-0.657,-0.6567,-0.656,-0.656,-0.6559,-0.6559,0,-0.6291,-0.6299,-0.6344,-0.6365,-0.6371,-0.64,-0.6418,-0.6443,-0.6451,-0.6487,-0.6495,-0.6507,-0.654,-0.6547,-0.6586,-0.6589,-0.6638,-0.6635,-0.6631,-0.6631,-0.666,-0.6657,-0.6753,-0.6766,-0.6686,-0.6686,-0.6687,0,-0.6333,-0.6362,-0.6385,-0.6403,-0.6416,-0.6445,-0.6464,-0.6467,-0.6487,-0.6514,-0.6535,-0.6567,-0.6592,-0.6644,-0.6657,-0.6686,-0.6684,-0.6716,-0.6689,-0.6687,-0.6685,-0.6683,-0.6686,-0.6721,-0.6722,-0.6723,-0.6723,0,-0.6407,-0.6409,-0.6435,-0.6463,-0.6485,-0.6507,-0.6529,-0.6544,-0.655,-0.6572,-0.6605,-0.6624,-0.6663,-0.6695,-0.6724,-0.6737,-0.6731,-0.6731,-0.674,-0.674,-0.6736,-0.6739,-0.6645,-0.6729,-0.6729,-0.6728,-0.6728,-0.6728,-0.6459,-0.6484,-0.6504,-0.6534,-0.655,-0.6569,-0.6594,-0.6604,-0.6631,-0.6662,-0.6663,-0.6698,-0.6719,-0.6758,-0.6772,-0.68,-0.6791,-0.6803,-0.6806,-0.6809,-0.6812,-0.6731,-0.6806,-0.6806,-0.6805,-0.6805,-0.6805,0,-0.6533,-0.6545,-0.6572,-0.6601,-0.6625,-0.6616,-0.6639,-0.6659,-0.6691,-0.671,-0.6735,-0.6772,-0.6802,-0.6817,-0.6847,-0.6866,-0.6865,-0.6874,-0.6873,-0.6876,-0.6819,-0.6808,-0.6875,-0.6875,-0.6875,-0.6875,-0.6875,-0.6875,-0.6573,-0.6615,-0.6619,-0.6668,-0.668,-0.6714,-0.6728,-0.6746,-0.6762,-0.6803,-0.6828,-0.6837,-0.6855,-0.6885,-0.6913,-0.6916,-0.6928,-0.6938,-0.6941,-0.6887,-0.688,-0.6873,-0.6864,-0.6941,-0.6941,-0.6996,-0.6996,-0.6997]},{"header":{"parameterUnit":"m.s-1","parameterCategory":1,"la1":30.2991,"la2":30.254,"lo1":-89.0895,"lo2":-89.0444,"dy":0.0017,"dx":0.0017,"nx":28,"ny":28,"refTime":"2025-11-15T03:00:00:Z","depth":0,"parameterNumber":3,"parameterNumberName":"V-component_of_WINDS"},"data":[0,0,0,0,0,0,0,0,0,0,0,0,0,0,0,0,0,0,0,0,0,0,0,0,0,0,0,0,0,0,0,0,0,0,0,0,0,0,0,0,0,0,0,0,0,0,0,0,0,0,0,0,0,0,0,0,0,0,-1.0182,-1.0182,0,-1.022,-1.0221,-1.0221,-1.0218,-1.0218,-1.0217,-1.0217,-1.0254,-1.0256,-1.0257,0,0,0,0,0,0,0,0,0,0,0,0,0,-1.0105,-1.0106,-1.0182,-1.0182,-1.0183,-1.022,-1.0221,-1.0221,-1.0218,-1.0218,-1.0217,-1.0216,-1.0254,-1.0256,-1.0258,0,0,0,0,0,0,0,0,0,0,0,0,0,-1.014,-1.0107,-1.0182,-1.0186,-1.0187,-1.022,-1.0221,-1.0221,-1.0218,-1.0218,-1.0217,-1.0216,-1.0253,-1.0256,-1.0258,-1.0289,0,0,-1.0265,-1.0266,0,0,0,0,0,0,0,0,-1.0138,-1.0143,-1.0185,-1.0186,-1.0187,-1.0214,-1.0207,-1.0244,-1.0219,-1.0206,-1.0217,-1.0216,-1.0241,-1.0245,-1.0254,-1.0291,-1.0292,-1.0265,-1.0266,-1.0267,-1.0268,0,0,0,0,0,0,0,-1.0136,-1.0141,-1.0197,-1.0185,-1.0186,-1.0185,-1.019,-1.0214,-1.0228,-1.0207,-1.0207,-1.0212,-1.0242,-1.0251,-1.0255,-1.0293,-1.0265,-1.0267,-1.0269,-1.0269,-1.0358,-1.0359,0,0,0,0,0,0,-1.0133,-1.0139,-1.0196,-1.0198,-1.016,-1.0188,-1.0192,-1.0206,-1.0228,-1.023,-1.0213,-1.0212,-1.0248,-1.0252,-1.0256,-1.0294,-1.0267,-1.027,-1.0271,-1.0357,-1.0358,-1.0359,0,0,0,0,0,0,-1.0131,-1.0138,-1.0194,-1.0169,-1.0176,-1.019,-1.0205,-1.0207,-1.0217,-1.0232,-1.0234,-1.022,-1.0247,-1.0253,-1.0281,-1.0295,-1.0271,-1.0273,-1.0356,-1.0357,-1.0359,-1.037,0,0,0,0,0,0,-1.0129,-1.0137,-1.0149,-1.0169,-1.0177,-1.0219,-1.0206,-1.0208,-1.0221,-1.022,-1.0239,-1.0242,-1.0247,-1.0278,-1.0283,-1.0298,-1.0275,-1.0355,-1.0356,-1.0358,-1.0369,-1.0372,-1.0375,0,0,0,0,0,-1.0126,-1.0151,-1.015,-1.0157,-1.0193,-1.022,-1.0224,-1.023,-1.0222,-1.0234,-1.0244,-1.0241,-1.0293,-1.028,-1.0287,-1.0302,-1.0354,-1.0356,-1.0358,-1.0367,-1.0371,-1.0375,0,0,0,0,0,0,-1.0132,-1.0153,-1.0153,-1.0185,-1.02,-1.0219,-1.0235,-1.0234,-1.0253,-1.0251,-1.0257,-1.0262,-1.029,-1.0299,-1.0285,-1.0334,-1.0322,-1.0326,-1.0327,-1.0331,-1.0334,-1.0331,-1.0276,0,0,0,0,0,-1.0137,-1.0157,-1.0175,-1.0201,-1.0209,-1.0221,-1.0233,-1.0236,-1.0252,-1.0259,-1.0271,-1.0287,-1.0306,-1.0319,-1.0338,-1.037,-1.0374,-1.0384,-1.0387,-1.0389,-1.0392,-1.041,-1.0414,-1.0366,-1.0366,-1.0366,0,0,-1.0147,-1.0162,-1.0174,-1.0203,-1.0215,-1.0236,-1.0226,-1.0249,-1.0264,-1.0262,-1.029,-1.0299,-1.0317,-1.0347,-1.0361,-1.0356,-1.0407,-1.0392,-1.0394,-1.0396,-1.0413,-1.0417,-1.0421,-1.0368,-1.0368,-1.0367,0,0,-1.0177,-1.019,-1.0213,-1.0226,-1.0246,-1.0254,-1.0259,-1.0278,-1.0285,-1.0313,-1.0312,-1.033,-1.0364,-1.0377,-1.0388,-1.0423,-1.0421,-1.0429,-1.0444,-1.0461,-1.0465,-1.0469,-1.0481,-1.0485,-1.0432,-1.0432,-1.0432,0,-1.0187,-1.0219,-1.0225,-1.0248,-1.0261,-1.0261,-1.0284,-1.0297,-1.0321,-1.033,-1.0323,-1.0366,-1.0378,-1.0412,-1.042,-1.0429,-1.0435,-1.0426,-1.0464,-1.0468,-1.0471,-1.0483,-1.0487,-1.0432,-1.0432,-1.0432,-1.0432,0,-1.023,-1.0252,-1.0269,-1.0293,-1.0308,-1.0331,-1.0341,-1.0355,-1.0357,-1.0365,-1.0393,-1.0408,-1.043,-1.0438,-1.044,-1.0472,-1.0468,-1.0463,-1.0451,-1.0476,-1.0487,-1.0492,-1.0434,-1.0433,-1.0433,-1.0433,0,0,-1.0264,-1.0292,-1.0298,-1.0309,-1.0331,-1.0348,-1.0371,-1.0393,-1.0405,-1.0422,-1.0441,-1.047,-1.0466,-1.0478,-1.0482,-1.0497,-1.0524,-1.049,-1.049,-1.0496,-1.0559,-1.0563,-1.0568,-1.0523,-1.0524,-1.0524,-1.0558,0,-1.0296,-1.0337,-1.0344,-1.038,-1.04,-1.0401,-1.0421,-1.0436,-1.0445,-1.0463,-1.0472,-1.0492,-1.0485,-1.0492,-1.0507,-1.0517,-1.0537,-1.0515,-1.054,-1.0541,-1.0536,-1.0574,-1.0578,-1.0609,-1.0562,-1.0563,-1.0564,0,-1.0338,-1.0357,-1.0395,-1.0415,-1.0423,-1.0441,-1.0462,-1.048,-1.0497,-1.0502,-1.0517,-1.0518,-1.0542,-1.0529,-1.0562,-1.0547,-1.0558,-1.0564,-1.0566,-1.0568,-1.0554,-1.0577,-1.0619,-1.0623,-1.0571,-1.057,-1.0569,0,-1.0359,-1.0394,-1.0421,-1.0431,-1.0454,-1.0467,-1.0477,-1.0494,-1.0506,-1.0525,-1.0533,-1.0554,-1.0565,-1.058,-1.0588,-1.0578,-1.062,-1.0608,-1.0624,-1.0624,-1.0632,-1.0632,-1.0676,-1.064,-1.064,-1.064,-1.064,0,-1.0393,-1.0416,-1.0431,-1.0448,-1.0474,-1.0481,-1.0507,-1.0517,-1.0532,-1.055,-1.0552,-1.0569,-1.0578,-1.0596,-1.0602,-1.0628,-1.0633,-1.0637,-1.0639,-1.0637,-1.0637,-1.0644,-1.0642,-1.0641,-1.0641,-1.064,-1.064,0,-1.042,-1.0431,-1.0461,-1.0481,-1.0486,-1.0505,-1.0522,-1.0538,-1.0546,-1.057,-1.0576,-1.0589,-1.0611,-1.062,-1.0646,-1.065,-1.068,-1.068,-1.0674,-1.0674,-1.069,-1.0689,-1.0741,-1.0748,-1.0707,-1.0708,-1.0708,0,-1.0441,-1.046,-1.0482,-1.0495,-1.0506,-1.0526,-1.054,-1.0548,-1.0562,-1.0583,-1.0597,-1.0619,-1.0637,-1.0672,-1.0683,-1.0703,-1.0703,-1.072,-1.0706,-1.0704,-1.0703,-1.0702,-1.0704,-1.0723,-1.0723,-1.0723,-1.0724,0,-1.0478,-1.0482,-1.0502,-1.0524,-1.054,-1.0557,-1.0574,-1.0584,-1.0595,-1.061,-1.0633,-1.0647,-1.0675,-1.0697,-1.0718,-1.0728,-1.0727,-1.0728,-1.0733,-1.0731,-1.0728,-1.073,-1.0681,-1.0727,-1.0726,-1.0726,-1.0726,-1.0726,-1.0503,-1.0519,-1.0537,-1.0559,-1.0573,-1.0589,-1.0605,-1.0616,-1.0635,-1.0659,-1.0662,-1.0686,-1.0703,-1.0732,-1.0743,-1.0762,-1.0757,-1.0764,-1.0766,-1.0767,-1.0768,-1.0725,-1.0765,-1.0765,-1.0765,-1.0765,-1.0765,0,-1.0539,-1.0551,-1.0571,-1.0595,-1.0612,-1.0611,-1.063,-1.0644,-1.0666,-1.0682,-1.07,-1.0726,-1.0747,-1.0761,-1.0782,-1.0794,-1.0795,-1.08,-1.0799,-1.0801,-1.0771,-1.0765,-1.0799,-1.0799,-1.0799,-1.0799,-1.0799,-1.0799,-1.056,-1.0587,-1.0594,-1.0628,-1.064,-1.0664,-1.0675,-1.0689,-1.0702,-1.0732,-1.075,-1.0759,-1.0774,-1.0796,-1.0815,-1.0819,-1.0826,-1.0832,-1.0835,-1.0806,-1.0803,-1.08,-1.0794,-1.0833,-1.0833,-1.0863,-1.0863,-1.0863]}]]